EW4781 Weather Reports


time (UTC)temp
F
wind
direction
speed
knots
gust
knots
rain 1hr
in
rain 24hr
in
rain mn
in
humidity
%
barometer
mb
20260906215344 66 43 4.3 5.2 0.00 0.01 0.01 71 1038.0
20260906214842 65 2 1.7 2.6 0.00 0.01 0.01 73 1037.9
20260906214342 65 78 2.6 2.6 0.00 0.01 0.01 73 1037.9
20260906213841 68 37 4.3 5.2 0.00 0.01 0.01 69 1038.0
20260906213336 68 14 2.6 4.3 0.00 0.01 0.01 70 1037.9
20260906212833 68 52 0.9 1.7 0.00 0.01 0.01 69 1037.9
20260906212329 67 46 0.9 0.9 0.00 0.01 0.01 71 1038.2
20260906211828 67 34 4.3 6.1 0.00 0.01 0.01 70 1038.0
20260906211324 68 332 3.5 5.2 0.00 0.01 0.01 70 1038.0
20260906210818 67 9 3.5 5.2 0.00 0.01 0.01 72 1038.0
20260906210313 66 24 1.7 2.6 0.00 0.01 0.01 72 1037.9
20260906205808 67 42 1.7 1.7 0.00 0.01 0.01 70 1037.9
20260906205306 68 93 1.7 1.7 0.00 0.01 0.01 70 1037.8
20260906204800 67 32 2.6 2.6 0.00 0.01 0.01 72 1037.9
20260906204259 65 2 2.6 2.6 0.00 0.01 0.01 74 1037.9
20260906203758 66 51 1.7 2.6 0.00 0.01 0.01 73 1037.6
20260906203254 68 54 1.7 2.6 0.00 0.01 0.01 71 1037.6
20260906202751 66 57 0.9 1.7 0.00 0.01 0.01 75 1037.9
20260906202250 68 34 2.6 2.6 0.00 0.01 0.01 72 1037.7
20260906201745 68 33 2.6 4.3 0.00 0.01 0.01 67 1037.8
20260906201244 66 307 0.9 1.7 0.00 0.01 0.01 73 1037.7
20260906200740 67 58 0.9 1.7 0.00 0.01 0.01 73 1037.6
20260906200236 70 313 4.3 6.1 0.00 0.01 0.01 67 1037.8
20260906195731 69 52 1.7 1.7 0.00 0.01 0.01 69 1037.6
20260906195228 67 52 2.6 5.2 0.00 0.01 0.01 69 1037.7
20260906194723 69 41 0.9 1.7 0.00 0.01 0.01 67 1037.7
20260906194219 70 344 4.3 7.0 0.00 0.01 0.01 69 1037.8
20260906193714 71 45 1.7 1.7 0.00 0.01 0.01 66 1037.7
20260906193208 69 38 0.9 0.9 0.00 0.01 0.01 67 1037.7
20260906192704 68 49 1.7 2.6 0.00 0.01 0.01 69 1037.5
20260906192204 71 352 2.6 2.6 0.00 0.01 0.01 66 1037.5
20260906191658 70 56 1.7 1.7 0.00 0.01 0.01 68 1037.5
20260906191158 70 71 1.7 2.6 0.00 0.01 0.01 67 1037.5
20260906190652 70 46 0.9 1.7 0.00 0.01 0.01 69 1037.4
20260906190147 70 57 0.9 1.7 0.00 0.01 0.01 71 1037.3
20260906185646 69 53 1.7 1.7 0.00 0.01 0.01 71 1037.6
20260906185145 69 59 0.9 0.9 0.00 0.01 0.01 71 1037.5
20260906184640 67 56 0.0 0.9 0.00 0.01 0.01 75 1037.8
20260906184136 67 52 0.9 0.9 0.00 0.01 0.01 74 1037.7
20260906183631 69 24 3.5 4.3 0.00 0.01 0.01 72 1037.5
20260906183127 68 295 3.5 4.3 0.00 0.01 0.01 71 1037.6
20260906182627 70 65 0.0 0.0 0.00 0.01 0.01 70 1037.7
20260906182123 69 42 0.9 1.7 0.00 0.01 0.01 72 1037.8
20260906181618 67 51 1.7 1.7 0.00 0.01 0.01 73 1037.8
20260906181114 68 25 1.7 2.6 0.00 0.01 0.01 74 1037.6
20260906180609 70 43 2.6 2.6 0.00 0.01 0.01 73 1037.6
20260906180103 68 57 0.0 0.9 0.00 0.01 0.01 74 1037.7
20260906175602 68 56 2.6 4.3 0.00 0.01 0.01 74 1037.7
20260906175056 66 61 0.0 0.0 0.00 0.01 0.01 76 1037.7
20260906174554 66 47 3.5 4.3 0.00 0.01 0.01 76 1037.8
20260906174050 69 72 1.7 2.6 0.00 0.01 0.01 74 1037.8
20260906173544 68 36 0.9 2.6 0.00 0.01 0.01 76 1037.8
20260906173041 67 44 2.6 4.3 0.00 0.01 0.01 76 1037.8
20260906172534 67 59 0.9 1.7 0.00 0.01 0.01 76 1037.6
20260906172030 69 42 1.7 1.7 0.00 0.01 0.01 77 1037.8
20260906171525 67 14 4.3 5.2 0.00 0.01 0.01 78 1037.9
20260906171021 65 19 3.5 5.2 0.00 0.01 0.01 80 1037.6
20260906170516 66 49 1.7 1.7 0.00 0.01 0.01 80 1037.8
20260906170015 67 44 2.6 2.6 0.00 0.01 0.01 78 1037.7
20260906165512 68 44 1.7 1.7 0.00 0.01 0.01 80 1038.0
20260906165007 66 58 0.0 0.9 0.00 0.01 0.01 79 1037.8
20260906164506 66 65 1.7 1.7 0.00 0.01 0.01 79 1037.8
20260906164003 68 54 0.9 1.7 0.00 0.01 0.01 76 1037.6
20260906163458 68 66 0.9 0.9 0.00 0.01 0.01 77 1037.8
20260906162956 66 59 0.9 0.9 0.00 0.01 0.01 80 1037.6
20260906162455 66 48 1.7 1.7 0.00 0.01 0.01 80 1037.8
20260906161949 68 62 0.9 1.7 0.00 0.01 0.01 75 1037.9
20260906161444 68 340 1.7 4.3 0.00 0.01 0.01 78 1037.7
20260906160943 66 59 0.9 0.9 0.00 0.01 0.01 81 1037.8
20260906160437 66 357 4.3 7.0 0.00 0.01 0.01 82 1037.9
20260906155935 66 59 1.7 2.6 0.00 0.01 0.01 80 1037.9
20260906155434 67 8 2.6 4.3 0.00 0.01 0.01 81 1037.8
20260906154930 66 55 1.7 1.7 0.00 0.01 0.01 81 1037.8
20260906154425 68 85 1.7 1.7 0.00 0.01 0.01 81 1037.7
20260906153923 66 55 1.7 1.7 0.00 0.01 0.01 84 1037.9
20260906153422 65 55 1.7 1.7 0.00 0.01 0.01 85 1037.9
20260906152918 64 55 0.9 1.7 0.00 0.01 0.01 88 1037.8
20260906152413 64 32 1.7 2.6 0.00 0.01 0.01 88 1037.8
20260906151912 63 37 4.3 5.2 0.00 0.01 0.01 87 1038.0
20260906151408 64 58 0.9 1.7 0.00 0.01 0.01 88 1037.8
20260906150903 63 60 1.7 1.7 0.00 0.01 0.01 90 1037.7
20260906150358 63 52 1.7 1.7 0.00 0.01 0.01 92 1037.9
20260906145857 63 53 1.7 1.7 0.00 0.01 0.01 92 1037.8
20260906145351 63 49 2.6 4.3 0.00 0.01 0.01 92 1037.6
20260906144845 63 53 1.7 1.7 0.00 0.01 0.01 93 1037.6
20260906144341 62 55 0.0 0.9 0.00 0.01 0.01 94 1037.6
20260906143841 63 65 0.0 0.9 0.00 0.01 0.01 94 1037.6
20260906143337 62 61 0.9 0.9 0.00 0.01 0.01 95 1037.5
20260906142832 62 59 0.9 0.9 0.00 0.01 0.01 96 1037.3
20260906142327 62 56 0.0 0.9 0.00 0.01 0.01 96 1037.7
20260906141827 62 55 1.7 1.7 0.00 0.01 0.01 96 1037.5
20260906141322 61 19 2.6 6.1 0.00 0.01 0.01 97 1037.5
20260906140820 61 36 1.7 1.7 0.00 0.01 0.01 97 1037.5
20260906140315 61 54 2.6 2.6 0.00 0.01 0.01 98 1037.5
20260906135813 61 50 0.9 1.7 0.00 0.01 0.01 98 1037.5
20260906135308 61 34 2.6 2.6 0.00 0.01 0.01 98 1037.3
20260906134803 61 55 1.7 1.7 0.00 0.01 0.01 99 1037.0
20260906134258 61 61 0.9 1.7 0.00 0.01 0.01 99 1037.0
20260906133754 61 58 0.9 0.9 0.00 0.01 0.01 99 1037.3
20260906133249 61 48 1.7 1.7 0.00 0.01 0.01 98 1037.1
20260906132745 61 58 0.0 0.9 0.07 0.01 0.01 98 1037.0
20260906132240 62 51 0.9 1.7 0.00 0.00 0.00 97 1037.0
20260906131735 62 59 0.9 0.9 0.00 0.00 0.00 97 1037.1
20260906131225 62 30 2.6 4.3 0.00 0.00 0.00 96 1037.1
20260906130720 62 45 2.6 4.3 0.00 0.00 0.00 96 1037.4
20260906130215 62 51 0.9 0.9 0.00 0.00 0.00 97 1037.0
20260906125714 62 51 0.0 0.0 0.00 0.00 0.00 97 1036.8
20260906125212 62 55 0.9 1.7 0.00 0.00 0.00 97 1036.8
20260906124707 61 40 0.9 0.9 0.00 0.00 0.00 97 1037.1
20260906124203 61 58 0.0 0.0 0.00 0.00 0.00 98 1036.9
20260906123701 61 63 0.0 0.0 0.00 0.00 0.00 98 1036.7
20260906123157 61 56 0.0 0.0 0.00 0.00 0.00 98 1036.6
20260906122656 60 57 0.0 0.9 0.00 0.00 0.00 98 1036.7
20260906122152 60 60 0.0 0.0 0.00 0.00 0.00 99 1036.8
20260906121648 60 58 0.0 0.0 0.00 0.00 0.00 99 1037.0
20260906121144 60 56 2.6 2.6 0.00 0.00 0.00 99 1036.7
20260906120640 60 60 0.9 1.7 0.00 0.00 0.00 99 1036.7
20260906120137 60 57 0.9 0.9 0.00 0.00 0.00 99 1036.5
20260906115637 60 58 0.0 0.0 0.00 0.00 0.00 99 1036.3
20260906115132 59 57 0.9 0.9 0.00 0.00 0.00 99 1036.3
20260906114631 59 55 0.0 0.9 0.00 0.00 0.00 99 1036.4
20260906114121 59 68 0.0 0.0 0.00 0.00 0.00 99 1036.3
20260906113621 59 61 0.0 0.0 0.00 0.00 0.00 99 1036.3
20260906113121 59 65 0.0 0.0 0.00 0.00 0.00 99 1036.2
20260906112620 59 41 1.7 1.7 0.00 0.00 0.00 99 1036.3
20260906112118 59 59 0.0 0.0 0.00 0.00 0.00 99 1036.2
20260906111616 59 58 0.9 0.9 0.00 0.00 0.00 99 1036.1
20260906111112 59 61 0.9 0.9 0.00 0.00 0.00 99 1036.0
20260906110612 59 52 1.7 1.7 0.00 0.00 0.00 99 1036.0
20260906110106 59 58 0.9 0.9 0.00 0.00 0.00 99 1036.0
20260906105600 59 60 0.9 1.7 0.00 0.00 0.00 99 1035.9
20260906105057 59 54 1.7 1.7 0.00 0.00 0.00 99 1036.2
20260906104555 59 56 0.9 1.7 0.00 0.00 0.00 99 1035.8
20260906104050 59 58 0.9 0.9 0.00 0.00 0.00 99 1035.8
20260906103548 59 59 0.0 0.0 0.00 0.00 0.00 99 1035.7
20260906103044 59 56 0.0 0.9 0.00 0.00 0.00 99 1035.7
20260906102543 59 57 0.0 0.0 0.00 0.00 0.00 99 1036.1
20260906102039 59 55 0.9 0.9 0.00 0.00 0.00 99 1035.9
20260906101533 59 65 0.0 0.0 0.00 0.00 0.00 99 1035.7
20260906101028 59 60 0.0 0.0 0.00 0.00 0.00 99 1035.8
20260906100523 59 47 1.7 1.7 0.00 0.00 0.00 99 1035.8
20260906100018 59 58 0.0 0.0 0.00 0.00 0.00 99 1035.7
20260906095513 59 57 0.9 0.9 0.00 0.00 0.00 99 1035.5
20260906095008 59 58 0.0 0.9 0.00 0.00 0.00 99 1035.7
20260906094507 59 58 0.9 0.9 0.00 0.00 0.00 99 1035.3
20260906094003 59 53 0.9 0.9 0.00 0.00 0.00 99 1035.5
20260906093459 59 25 2.6 2.6 0.00 0.00 0.00 99 1035.3
20260906092954 59 55 0.9 1.7 0.00 0.00 0.00 99 1035.2
20260906092454 58 54 0.9 0.9 0.00 0.00 0.00 99 1035.0
20260906091949 58 44 0.0 0.9 0.00 0.00 0.00 99 1035.1
20260906091444 57 43 0.0 0.0 0.00 0.00 0.00 99 1035.0
20260906090941 58 43 0.0 0.0 0.00 0.00 0.00 99 1034.9
20260906090436 58 43 0.0 0.0 0.00 0.00 0.00 99 1035.0
20260906085930 58 45 0.0 0.0 0.00 0.00 0.00 99 1034.8
20260906085429 58 44 0.0 0.0 0.00 0.00 0.00 99 1034.9
20260906084928 58 47 0.0 0.0 0.00 0.00 0.00 99 1034.8
20260906084424 59 50 0.0 0.0 0.00 0.00 0.00 99 1034.7
20260906083923 58 53 0.0 0.0 0.00 0.00 0.00 99 1034.7
20260906083418 59 42 0.9 0.9 0.00 0.00 0.00 99 1034.6
20260906082917 59 36 0.9 1.7 0.00 0.00 0.00 99 1034.7
20260906082413 59 49 0.9 0.9 0.00 0.00 0.00 99 1034.6
20260906081909 59 44 0.9 0.9 0.00 0.00 0.00 99 1034.9
20260906081404 59 51 0.0 0.9 0.00 0.00 0.00 99 1034.5
20260906080900 59 42 0.9 0.9 0.00 0.00 0.00 99 1034.7
20260906080356 59 46 0.0 0.0 0.00 0.00 0.00 99 1034.5
20260906075855 59 46 0.0 0.0 0.00 0.00 0.00 99 1034.4
20260906075350 59 46 0.0 0.0 0.00 0.00 0.00 99 1034.6
20260906074846 59 46 0.9 0.9 0.00 0.00 0.00 99 1034.6
20260906074340 58 46 0.0 0.0 0.00 0.00 0.00 99 1034.6
20260906073838 58 46 0.0 0.0 0.00 0.00 0.00 99 1034.5
20260906073334 59 46 0.0 0.0 0.00 0.00 0.00 99 1034.5
20260906072830 58 46 0.0 0.0 0.00 0.00 0.00 99 1034.7
20260906072326 59 46 0.0 0.0 0.00 0.00 0.00 99 1034.8
20260906071822 60 46 0.0 0.0 0.00 0.00 0.00 99 1034.6
20260906071322 60 47 0.0 0.0 0.00 0.00 0.00 99 1034.7
20260906070818 60 46 0.0 0.0 0.00 0.00 0.00 99 1034.6
20260906070313 60 46 0.0 0.9 0.00 0.00 0.00 99 1034.6
20260906065808 60 44 0.9 0.9 0.00 0.00 0.00 99 1034.5
20260906065305 60 47 0.0 0.0 0.00 0.00 0.00 99 1034.4
20260906064759 60 57 0.0 0.9 0.00 0.00 0.00 98 1034.6
20260906064255 60 50 0.9 0.9 0.00 0.00 0.00 98 1034.6
20260906063749 60 47 0.9 0.9 0.00 0.00 0.00 97 1034.6
20260906063245 61 43 0.9 0.9 0.00 0.00 0.00 97 1034.9
20260906062740 61 55 0.0 0.9 0.00 0.00 0.00 97 1034.6
20260906062239 61 51 0.0 0.9 0.00 0.00 0.00 96 1034.5
20260906061735 62 48 0.9 0.9 0.00 0.00 0.00 96 1034.8
20260906061231 62 57 0.0 0.9 0.00 0.00 0.00 96 1034.6
20260906060726 62 45 1.7 1.7 0.00 0.00 0.00 97 1034.6
20260906060224 62 55 0.9 0.9 0.00 0.00 0.00 97 1034.7
20260906055719 61 55 1.7 1.7 0.00 0.00 0.00 96 1034.8
20260906055214 60 45 0.9 1.7 0.00 0.00 0.00 96 1034.9
20260906054709 60 36 0.9 1.7 0.00 0.00 0.00 96 1034.8
20260906054204 60 47 0.0 0.9 0.00 0.00 0.00 95 1034.6
20260906053701 60 47 0.9 0.9 0.00 0.00 0.00 95 1034.8
20260906053156 60 47 0.9 0.9 0.00 0.00 0.00 95 1035.0
20260906052651 60 48 0.0 0.9 0.00 0.00 0.00 96 1034.9
20260906052148 60 48 0.9 0.9 0.00 0.00 0.00 96 1034.7
20260906051644 60 50 0.9 0.9 0.00 0.00 0.00 96 1034.8
20260906051143 60 50 0.9 0.9 0.00 0.00 0.00 97 1034.9
20260906050639 59 49 0.0 0.0 0.00 0.00 0.00 98 1034.8
20260906050134 59 49 0.0 0.0 0.00 0.00 0.00 98 1034.9
20260906045632 59 49 0.0 0.0 0.00 0.00 0.00 98 1034.9
20260906045128 59 49 0.0 0.0 0.00 0.00 0.00 98 1034.9
20260906044624 59 53 0.9 0.9 0.00 0.00 0.00 98 1035.0
20260906044119 59 56 0.0 0.0 0.00 0.00 0.00 98 1034.8
20260906043615 59 56 0.0 0.0 0.00 0.00 0.00 98 1034.7
20260906043110 59 56 0.0 0.0 0.00 0.00 0.00 98 1034.6
20260906042609 59 56 0.0 0.0 0.00 0.00 0.00 98 1034.7
20260906042104 59 56 0.0 0.0 0.00 0.00 0.00 98 1034.8
20260906041600 59 56 0.0 0.0 0.00 0.00 0.00 98 1034.8
20260906041055 58 56 0.0 0.0 0.00 0.00 0.00 97 1034.6
20260906040550 59 56 0.0 0.0 0.00 0.00 0.00 97 1034.8
20260906040045 58 56 0.0 0.0 0.00 0.00 0.00 97 1034.5
20260906035541 58 55 0.0 0.0 0.00 0.00 0.00 97 1034.7
20260906035037 58 56 0.0 0.0 0.00 0.00 0.00 96 1034.6
20260906034536 58 56 0.0 0.0 0.00 0.00 0.00 96 1034.8
20260906034031 59 55 0.0 0.0 0.00 0.00 0.00 96 1034.7
20260906033526 59 56 0.0 0.0 0.00 0.00 0.00 96 1034.5
20260906033022 59 55 0.0 0.9 0.00 0.00 0.00 95 1034.6
20260906032519 59 56 0.0 0.0 0.00 0.00 0.00 95 1034.4
20260906032018 59 56 0.0 0.9 0.00 0.00 0.00 96 1034.5
20260906031514 59 56 0.0 0.0 0.00 0.00 0.00 96 1034.6
20260906031003 59 55 0.9 0.9 0.00 0.00 0.00 96 1034.4
20260906030457 59 58 0.0 0.9 0.00 0.00 0.00 96 1034.4
20260906025952 59 60 0.0 0.9 0.00 0.00 0.00 97 1034.6
20260906025446 59 60 0.0 0.0 0.00 0.00 0.00 97 1034.4
20260906024945 59 60 0.0 0.0 0.00 0.00 0.00 97 1034.4
20260906024445 58 61 0.0 0.0 0.00 0.00 0.00 97 1034.4
20260906023945 58 61 0.0 0.0 0.00 0.00 0.00 97 1034.3
20260906023441 59 61 0.0 0.0 0.00 0.00 0.00 97 1034.2
20260906022936 58 61 0.0 0.0 0.00 0.00 0.00 97 1034.3
20260906022431 59 61 0.0 0.0 0.00 0.00 0.00 96 1034.4
20260906021926 59 61 0.0 0.0 0.00 0.00 0.00 96 1034.3
20260906021426 59 61 0.0 0.0 0.00 0.00 0.00 96 1034.4
20260906020920 59 60 0.0 0.0 0.00 0.00 0.00 96 1034.4
20260906020415 60 61 0.0 0.0 0.00 0.00 0.00 96 1034.4
20260906015909 60 60 0.0 0.0 0.00 0.00 0.00 95 1034.2
20260906015409 60 60 0.0 0.0 0.00 0.00 0.00 95 1034.2
20260906014908 60 60 0.0 0.0 0.00 0.00 0.00 95 1034.1
20260906014403 61 58 0.0 0.0 0.00 0.00 0.00 95 1034.3
20260906013859 61 57 0.0 0.9 0.00 0.00 0.00 95 1034.2
20260906013354 61 57 0.0 0.0 0.00 0.00 0.00 95 1034.1
20260906012850 61 58 0.0 0.9 0.00 0.00 0.00 95 1034.2
20260906012344 61 59 0.9 0.9 0.00 0.00 0.00 95 1034.1
20260906011844 61 59 0.9 0.9 0.00 0.00 0.00 94 1034.2
20260906011339 61 59 0.0 0.9 0.00 0.00 0.00 94 1034.1
20260906010835 62 60 0.9 0.9 0.00 0.00 0.00 94 1034.0
20260906010331 62 61 0.9 0.9 0.00 0.00 0.00 94 1034.2
20260906005826 62 49 0.9 0.9 0.00 0.00 0.00 94 1034.0
20260906005325 61 55 0.9 1.7 0.00 0.00 0.00 95 1034.1
20260906004819 61 53 0.0 0.0 0.00 0.00 0.00 95 1033.8
20260906004319 61 53 0.9 0.9 0.00 0.00 0.00 95 1034.0
20260906003814 61 53 0.0 0.0 0.00 0.00 0.00 94 1033.9
20260906003309 61 52 0.9 0.9 0.00 0.00 0.00 94 1033.8
20260906002805 61 53 0.9 0.9 0.00 0.00 0.00 94 1033.9
20260906002306 61 55 0.9 0.9 0.00 0.00 0.00 93 1034.0
20260906001800 61 55 0.9 0.9 0.00 0.00 0.00 93 1034.0
20260906001255 62 55 0.0 0.0 0.00 0.00 0.00 92 1033.8
20260906000750 62 55 0.9 0.9 0.00 0.00 0.00 91 1033.9
20260906000250 63 55 0.0 0.0 0.00 0.00 0.00 90 1034.1
20260905235745 63 57 0.0 0.0 0.00 0.00 0.00 89 1033.9
20260905235244 63 56 0.9 0.9 0.00 0.00 0.00 89 1033.8
20260905234740 64 58 0.9 1.7 0.00 0.00 0.00 88 1033.9
20260905234235 64 56 0.9 0.9 0.00 0.00 0.00 88 1033.8
20260905233730 64 56 0.9 0.9 0.00 0.00 0.00 87 1033.7
20260905233230 64 58 0.9 0.9 0.00 0.00 0.00 86 1033.8
20260905232724 65 56 0.9 1.7 0.00 0.00 0.00 85 1033.7
20260905232220 66 57 0.9 1.7 0.00 0.00 0.00 84 1034.0
20260905231716 66 57 0.9 1.7 0.00 0.00 0.00 83 1033.8
20260905231212 66 54 1.7 1.7 0.00 0.00 0.00 82 1033.6
20260905230707 67 55 1.7 1.7 0.00 0.00 0.00 81 1034.0
20260905230205 67 339 4.3 4.3 0.00 0.00 0.00 81 1033.6
20260905225705 67 54 0.9 1.7 0.00 0.00 0.00 80 1033.6
20260905225159 68 53 1.7 1.7 0.00 0.00 0.00 79 1033.9
20260905224653 68 53 0.9 0.9 0.00 0.00 0.00 78 1033.8
20260905224148 68 54 0.0 0.9 0.00 0.00 0.00 78 1033.8
20260905223645 68 29 1.7 1.7 0.00 0.00 0.00 76 1033.7
20260905223142 68 35 1.7 1.7 0.00 0.00 0.00 77 1033.8
20260905222637 68 49 2.6 2.6 0.00 0.00 0.00 77 1033.9
20260905222132 67 28 0.9 1.7 0.00 0.00 0.00 79 1033.7
20260905221627 66 52 0.9 0.9 0.00 0.00 0.00 81 1033.8
20260905221124 67 19 1.7 1.7 0.00 0.00 0.00 79 1033.7
20260905220619 68 61 2.6 2.6 0.00 0.00 0.00 79 1033.8
20260905220115 68 18 2.6 2.6 0.00 0.00 0.00 78 1033.4